Résultats de la compétition "Correze International Open - Bugeat" du 08-05-2009 organisée par le club 1905
     
  Télécharger le fichier CSV.  
     
     

 Circuit "E"

Licence Nom Prénom Temps CN
précédent
Score sur
la course
Différence
10561DUPOIRIEUXJules0:29:5664886111-377
9874AVEDIKIANVincent0:31:4354515768+317
11475GODEFROYBruno0:32:4654065583+177
16372BAUDOTRemi0:32:5548915558+667
17576JOLYPhilippe0:32:5757775552-225
10183BODYFlorentin0:32:5850685549+481
1884DUBOCMichel0:33:4154365431-5
10733PEZETArnaud0:34:0454795370-109
13669DESREUMAUXArthur0:34:1857665333-433
13554CHATAINGClement0:34:4948345254+420
5334CAPBERNPatrick0:35:1157085199-509
10368SIAUDMarius0:35:3142065151+945
13566MAZARSValentin0:35:5246695100+431
10451RAIMBAULTPhilippe0:36:0248265077+251
32CHARLESEric0:36:1341885051+863
2731PERRINOdile0:36:1947885037+249
7260SUTTEROlivier0:36:3559135000-913
702WYMERIsabelle0:38:0752604799-461
19240MAZYFrançois-rémi0:38:2237974768+971
11485VERGEPhilippe0:38:2752494758-491
7715SANDEVOIRClaire0:38:2747904758-32
4183RAUTURIERCamille0:39:1360134665-1348
2717HABERKORNValérie0:39:2652344639-595
15787ROCHEFanny0:39:3551594622-537
17170VUILLEMINGuillaume0:39:5340844587+503
20279BEILLCédric0:40:00N/A4573N/A
17392MONTIGAUDThibault0:40:3243744513+139
1577VINCENTMichel0:40:3360184511-1507
13244VARRONStephanie0:40:5148674478-389
4182RAUTURIERMaxime0:41:0547154453-262
7259SUTTERAriane0:41:4542374382+145
10669POEDRASDaniel0:41:5046754373-302
18125COCHESebastien0:41:5125104371+1861
5802BREMAUDTitouan0:42:0747844344-440
12123COPINArthur0:42:1431684332+1164
13391ROGERAlexandre0:42:3845554291-264
11476DEBOCQMAINEAgnes0:42:4842894274-15
16550PAGEQuentin0:43:0131844253+1069
5436FLAMBEAUMathilde0:43:0346404249-391
11440DUPOIRIEUXGilles0:43:0454604248-1212
13197CAZELLEDidier0:43:0549464246-700
507PRATH-Pierre0:43:08N/A4241N/A
19028SCHMIDT-MORGENROTHJacques0:43:0840304241+211
2443PEANBruno0:43:1538884230+342
14665SZYMANOWSKIValentin0:43:1734174226+809
12124CHABALClaire0:43:3843884193-195
13088GRENOUILLATJ-Louis0:44:0437744151+377
17154CARESIOHugo0:44:0550694150-919
2369BRELLMANNHubert0:44:0850234145-878
2179OLIVIERSandra0:44:1956364128-1508
670RUDEAUTDominique0:44:34N/A4105N/A
2892MOULIERECamille0:44:5144874079-408
13674BLUMMarie0:44:5645394071-468
2819DECROIXVeronique0:45:0036144065+451
18082RADISSONPaul0:45:0230504062+1012
12225PERISSATJ-Louis0:45:07N/A4055N/A
5137AVEDIKIANNicolas0:45:1040114050+39
14024VALENTINTeo0:45:1637944041+247
1928CHAILLARDMarketa0:45:2143134034-279
20415BUET-ELFASSYSamuel0:45:51N/A3990N/A
4592ANTOINE-DELAUMESophie0:45:5343403987-353
14764DUBESSYLucas0:45:5331183987+869
10013ZEQUESNathan0:46:1135863961+375
17345LARGILLERELucien0:46:2747733938-835
8921ROULLEAUXMaeva0:46:3848603923-937
17713KAUFFMANNBaptiste0:46:4442163914-302
9171POULAINYannick0:47:0740453883-162
12055POUPARDAlain0:47:4444703832-638
7248COUPATElisabeth0:47:5033693824+455
10745MAINERoxane0:48:5747753737-1038
15170DESREUMAUXVictor0:49:0038923733-159
13911JANKECHKarine0:49:0333753730+355
6391BARRIERSimon0:49:1737073712+5
9949ILLESJoel0:49:1930943709+615
12842RODRIGUEZDelphine0:49:2238303706-124
9471DESPLANQUESPierrick0:49:30N/A3696N/A
16050SCHILLINGMarion0:49:4339153680-235
13570SERRANDJonathan0:49:4739593675-284
8550CLOUARDCamille0:49:4847373673-1064
9437MANSUYBernard0:49:5434743666+192
274FIGUIEREValerie0:50:2142783633-645
11707CHAILLARDFabien0:50:3035603622+62
9363BARLETJ-Pierre0:50:4737413602-139
227CHAMPTIAUXIsabelle0:50:50N/A3599N/A
18133VILLARAurélie0:50:5336963595-101
9439MANSUYP-Yves0:51:0535173581+64
17177BONHOMMERobert0:51:07N/A3579N/A
1591DELENNEBlandine0:51:0839573578-379
15093VILLEDIEURemi0:51:0945203576-944
12202BASThierry0:51:13N/A3572N/A
20347BISSIEREKevin0:51:1536833569-114
2894LEBIHANMarcel0:51:1947293565-1164
11474LACASSINMilan0:51:2338523560-292
20214PECQUEURFlorian0:51:2544673558-909
18637FREMONTJohanne0:51:2828733554+681
13850CAGNARDNathalie0:51:3731193544+425
20803LAHOUSSENathan0:52:07N/A3510N/A
10417HOFFGeoffrey0:52:1529333501+568
22104VIVOTNoé0:52:17N/A3499N/A
8116GARROTSophie0:52:2340853492-593
6295GIRARDPhilippe0:52:4436393469-170
10766ROBYNLaurence0:52:4638533467-386
14911LAMINETTEPauline0:52:5236833460-223
11656MORLANDAdele0:53:09N/A3442N/A
12073JOVERKevin0:53:2742833423-860
12963CASTIERPhilippe0:53:3241753417-758
17071VANHAUWAERTClaire0:53:4434543404-50
11036RAIMBAULTLouis0:54:0239953386-609
2378MAKOVICKAVeronique0:54:1942263368-858
7044LOTERIEMurielle0:54:2840453359-686
20212DAMIENSMaxime0:54:3419763352+1376
13937ERTELKelly0:54:5940543327-727
19136TANTARTDelphine0:55:0836993318-381
16229VERCAUTERENM-Claude0:55:5533373272-65
10503MAZARDJ-Pierre0:56:0443233263-1060
9164TORZDidier0:56:0732623260-2
4810GROCAlain0:56:2137283246-482
14533MOLLARETAxelle0:56:5222003217+1017
18864GUILLOUQuentin0:56:5516903214+1524
14767CERTANOChloe0:57:0234373208-229
9916LAPLACEAlain0:57:12N/A3198N/A
12357RINGOTAlexis0:57:3937623173-589
17618ECKESElise0:57:4124473171+724
21411MERMETAntoine0:57:50N/A3163N/A
13270ROUXCatherine0:58:0536053150-455
8913BONDIVENNEPierre0:58:0629463149+203
22102MARTINLéo0:58:08N/A3147N/A
21968HABAUZITYannick0:58:31N/A3126N/A
20100ENJOLRASSimon0:58:5023443109+765
19279SANTERREBruno0:58:5633993104-295
19569BARRAUDNicolas0:59:0522423096+854
11495DELENNEA-Francoise0:59:1140603091-969
15520VAUCHEEric0:59:2824823076+594
21220TAISSONSandrine0:59:29N/A3075N/A
10904RAVENELFanny0:59:3838583068-790
18827CRETEAngélique1:00:0930333041+8
20686ROIRobert1:00:20N/A3032N/A
19509SALIQUEManon1:00:3412783020+1742
20375BURELAnne1:00:44N/A3012N/A
4890CLERCGaston1:00:4945323008-1524
15310BROUSSEIsabelle1:00:5035303007-523
6480D'HARREVILLEKenny1:00:5342423005-1237
20840DUBUISSONRony1:01:07N/A2993N/A
19812SOULATDenis1:01:1935942983-611
9145ROCHERAdèle1:01:2839392976-963
7614BRUNETIsabelle1:01:4638462962-884
22072POUZINCharles1:01:57N/A2953N/A
13328BOCAUTGabrielle1:02:1830432936-107
8047BONDIVENNEMarie1:02:4035142919-595
17242BOURGEOISSandrine1:02:5322212909+688
13824TREMOULETCarole1:03:3333232879-444
5485SERINETCarole1:03:3431132878-235
18601PETINONChristine1:03:4131172873-244
20294LECUYERClement1:03:4523132870+557
15332MEYERPatricia1:03:4634582869-589
20907CLEMENTMaxime1:03:50N/A2866N/A
22095LITZLERBertrand1:03:54N/A2863N/A
7002DELHOTALValerie1:04:1936392844-795
19511CALLOLéa1:04:34N/A2833N/A
19227DIMECHAdrien1:05:0331472812-335
16146BITTERLINLaurence1:05:1722722802+530
13272CZERNIAKSidonie1:05:2420922797+705
13203CAPELLECecile1:05:2536372796-841
15200MARGOTTEAUPhilippe1:05:3024272793+366
20272LOPEZQuentin1:06:35N/A2747N/A
19330DIMECHMaxime1:06:3624082747+339
1155DELIValentine1:07:0832052725-480
13688FRANCOISAline1:07:3733122705-607
10684ROCHESandrine1:07:4633252699-626
17952DUDOIGNONJocelyne1:07:46N/A2699N/A
14907BLAISEClaire1:07:5326712695+24
17309BESTELFlorence1:08:3532272667-560
13150GUETAZLaure1:09:1731532640-513
21468PERRINJonas1:09:27N/A2634N/A
14939FOL-RIBETHelene1:09:3636632628-1035
20416STEPHANYAntoine1:09:53N/A2618N/A
12767LOGESophie1:10:0431362611-525
20295LECUYERThibault1:11:0223252575+250
13672BLUMSylvain1:11:1323702569+199
21286MARZETTIDeborah1:12:30N/A2523N/A
18079WOEHRLE RADISSONAnne1:14:2327922459-333
22103GAULARDAntoine1:14:32N/A2454N/A
22092BRUNAUDPierre1:15:26N/A2425N/A
8549CLOUARDFlorence1:15:4027652418-347
8077GANDONFabienne1:16:09N/A2402N/A
15092VILLEDIEUJ-Luc1:16:4831892382-807
19875BROUILLETFrédérique1:16:52N/A2380N/A
16956GALETElisabeth1:17:4823522351-1
5989MAESKarine1:17:5135832350-1233
14885CONIELMarie1:18:0527202343-377
22016MOUAHasna1:18:27N/A2332N/A
19601GILLETAnnabelle1:19:1619872308+321
12761MARCHANDStephanie1:20:07N/A2283N/A
20211CREPIEUXRémy1:20:3923072268-39
19029LAGARRIGUEJean-luc1:21:0125192258-261
10182BODYAgnes1:21:2024962249-247
20666BAYLETmarie-pierre1:21:35N/A2242N/A
19526SOULATMarion1:21:3532912242-1049
22057GERMONKévin1:21:35N/A2242N/A
19296DEBARGEErik1:22:12N/A2225N/A
19155GOURLAINMarguerite-marie1:22:2320202221+201
18370TAUZINLaurence1:22:5920812204+123
18506BENHIDACécile1:22:5916532204+551
15096BASSandie1:23:53N/A2181N/A
13355SCHLUTIGSandrine1:24:30N/A2165N/A
19862CHERENSACSandra1:27:4215572086+529
17082SCHAMBERGERAnne1:28:5823522056-296
8890BARSANTIPatricia1:31:3937771996-1781
19610CLOUDOlivier1:32:2029291981-948
5674TANGUYValerie1:33:45N/A1951N/A
18611LANQUETINCéline1:34:0033781946-1432
20399HIRSCHAUERFlore1:35:3822701913-357
15675BERJOANAdrien1:39:1224321844-588
16826BOISSERIESylvain1:47:1834401705-1735
16039LEMBEZATM-Christine1:48:3824571684-773
18081RADISSONLouise1:51:5719111634-277
20538BOUCHERONLaurence2:01:3419321505-427
20478MARIVIERIsabelle2:19:34N/A1311N/A
6924SUTYJ-Claude2:38:4347651153-3612
22073WALLONJulienN/AN/A0N/A
1386LELOUPPhilippeN/A43320-4332
11069CAPBERNLoicN/A57180-5718
1947POULAINJoelN/A53120-5312
21116PROISYJean-claudeN/AN/A0N/A
12658LECLERCQAlainN/A16130-1613

  Indice de confiance du circuit (moyenne des différences entre CN et score sur la course des 3 à 10 premiers) : 25






 Retour